Regional Weather Roundup
Issued by NWS

Home | Current Version | Previous Version | Text Only | Print | Product List | Glossary Off
Versions: 1 2 3 4 5 6 7 8 9 10 11 12 13 14 15 16 17 18 19 20 21 22 23 24 25 26 27 28 29 30 31 32 33 34 35 36 37 38 39 40 41 42 43 44 45 46 47 48 49 50

000
ASUS43 KLSX 300207
RWRMO

WEATHER SUMMARY FOR MISSOURI
NATIONAL WEATHER SERVICE SPRINGFIELD MO
900 PM CDT TUE JUL 29 2014

NOTE: "FAIR" INDICATES FEW OR NO CLOUDS BELOW 12,000 FEET WITH NO
       SIGNIFICANT WEATHER AND/OR OBSTRUCTIONS TO VISIBILITY.
       CURRENT SKY AND/OR WEATHER CONDITIONS ARE NOT AVAILABLE FOR
       CHILLICOTHE AND FARMINGTON.

MOZ001>031-035>038-043-044-053-054-300300-
...NORTHERN AND WESTERN MISSOURI...

CITY           SKY/WX    TMP DP  RH WIND       PRES   REMARKS
KANSAS CTY INT MOCLDY    72  60  66 NE3       30.09S
KANSAS C DTWN  CLEAR     76  58  53 N6        30.07S
LEE`S SUMMIT   CLOUDY    77  58  51 NE5       30.09S
ST JOSEPH      MOCLDY    69  63  81 NW3       30.09S
CHILLICOTHE      N/A     67  61  81 CALM      30.09S
KIRKSVILLE     CLEAR     64  59  83 CALM      30.09S

$$
MOZ066>068-077>081-088>096-101>105-300300-
...SOUTHWEST MISSOURI...

CITY           SKY/WX    TMP DP  RH WIND       PRES   REMARKS
SPRINGFIELD    CLEAR     75  57  53 CALM      30.08S
JOPLIN         PTCLDY    73  60  63 CALM      30.08F

$$
MOZ032>034-039>042-045>050-055>058-069>072-300300-
...CENTRAL MISSOURI...

CITY           SKY/WX    TMP DP  RH WIND       PRES   REMARKS
COLUMBIA       CLEAR     72  58  61 NE3       30.08S
JEFFERSON CITY CLEAR     71  57  61 CALM      30.06S
ROLLA          MOCLDY    69  55  60 CALM      30.07S
SEDALIA        CLEAR     73  58  59 CALM      30.08F
WHITEMAN AFB   CLEAR     70  51  51 CALM      30.08S
OSAGE BEACH      N/A     70  57  64 CALM      30.07S

$$
MOZ051-052-059>065-300300-
...EAST CENTRAL MISSOURI...

CITY           SKY/WX    TMP DP  RH WIND       PRES   REMARKS
ST LOUIS INTL  PTCLDY    74  55  51 CALM      30.07F
SPIRIT OF STL  PTCLDY    67  59  75 CALM      30.06S
ST CHARLES     CLEAR     68  61  78 CALM      30.05F

$$
MOZ072>076-082>087-097>100-106>115-300300-
...SOUTH CENTRAL AND SOUTHEAST MISSOURI...

CITY           SKY/WX    TMP DP  RH WIND       PRES   REMARKS
CAPE GIRARDEAU CLEAR     66  59  78 S5        30.07S
FARMINGTON     CLEAR     68  54  60 CALM      30.10S
POPLAR BLUFF   CLEAR     68  58  70 SE3       30.06F
WEST PLAINS    CLEAR     68  58  70 CALM      30.09F

$$


USA.gov is the U.S. government's official web portal to all federal, state and local government web resources and services.